This is the latest recevied weather packets stored in our database for station/object WD9U. If no packets are shown the sender has not sent any weather packets the latest 10 day(s).
| Time | Temp. | Humidity | Pressure | Rain* | Wind** | Luminosity | Snow |
|---|---|---|---|---|---|---|---|
| 1777842067 | 18.33° C | 21% | 1004.2 hPa | 0 mm | - | 518 W/m² | - |
| 1777841716 | 18.33° C | 20% | 1004.1 hPa | 0 mm | - | 432 W/m² | - |
| 1777841356 | 18.33° C | 21% | 1004.1 hPa | 0 mm | - | 542 W/m² | - |
| 1777841118 | 18.33° C | 20% | 1004.1 hPa | 0 mm | - | 387 W/m² | - |
| 1777840996 | 18.33° C | 20% | 1004.3 hPa | 0 mm | - | 538 W/m² | - |
| 1777840636 | 18.33° C | 21% | 1004.1 hPa | 0 mm | - | 400 W/m² | - |
| 1777840276 | 18.33° C | 19% | 1004.2 hPa | 0 mm | - | 544 W/m² | - |
| 1777839916 | 18.89° C | 20% | 1004.2 hPa | 0 mm | - | 363 W/m² | - |
| 1777839556 | 18.89° C | 20% | 1004.2 hPa | 0 mm | - | 796 W/m² | - |
| 1777839196 | 18.89° C | 20% | 1004.3 hPa | 0 mm | - | 754 W/m² | - |
| 1777838836 | 18.89° C | 19% | 1004.3 hPa | 0 mm | - | 832 W/m² | - |
| 1777838718 | 18.89° C | 20% | 1004.4 hPa | 0 mm | - | 777 W/m² | - |
| 1777838475 | 18.89° C | 20% | 1004.3 hPa | 0 mm | - | 468 W/m² | - |
| 1777838115 | 18.33° C | 21% | 1004.4 hPa | 0 mm | - | 778 W/m² | - |
| 1777837755 | 18.89° C | 20% | 1004.4 hPa | 0 mm | - | 432 W/m² | - |
| 1777837517 | 18.89° C | 21% | 1004.4 hPa | 0 mm | - | 554 W/m² | - |
| 1777837395 | 18.89° C | 22% | 1004.4 hPa | 0 mm | - | 705 W/m² | - |
| 1777837035 | 18.89° C | 20% | 1004.4 hPa | 0 mm | - | 586 W/m² | - |
| 1777836675 | 18.89° C | 21% | 1004.3 hPa | 0 mm | - | 791 W/m² | - |
| 1777836315 | 18.89° C | 22% | 1004.4 hPa | 0 mm | - | 738 W/m² | - |
| 1777835954 | 18.89° C | 22% | 1004.4 hPa | 0 mm | - | 806 W/m² | - |
| 1777835594 | 18.89° C | 22% | 1004.4 hPa | 0 mm | - | 718 W/m² | - |
| 1777835234 | 18.89° C | 26% | 1004.5 hPa | 0 mm | - | 826 W/m² | - |
| 1777835116 | 18.89° C | 26% | 1004.4 hPa | 0 mm | - | 796 W/m² | - |
| 1777834873 | 18.89° C | 26% | 1004.5 hPa | 0 mm | - | 818 W/m² | - |
* Rain latest hour (hover to see other rain measurements)
** Current wind speed in m/s (hover to see current wind gust speed)